[[{"header":{"parameterUnit":"m.s-1","parameterCategory":1,"la1":30.2991,"la2":30.254,"lo1":-89.0895,"lo2":-89.0444,"dy":0.0017,"dx":0.0017,"nx":28,"ny":28,"refTime":"2023-09-13T21:00:00:Z","depth":0,"parameterNumber":2,"parameterNumberName":"U-component_of_WINDS"},"data":[0,0,0,0,0,0,0,0,0,0,0,0,0,0,0,0,0,0,0,0,0,0,0,0,0,0,0,0,0,0,0,0,0,0,0,0,0,0,0,0,0,0,0,0,0,0,0,0,0,0,0,0,0,0,0,0,0,0,-2.0265,-2.0264,0,-2.0202,-2.0202,-2.0201,-2.0134,-2.0133,-2.0132,-2.0131,-2.0064,-2.0064,-2.0063,0,0,0,0,0,0,0,0,0,0,0,0,0,-2.0324,-2.0324,-2.0265,-2.0264,-2.0263,-2.0202,-2.0202,-2.0201,-2.0134,-2.0133,-2.0132,-2.0131,-2.0065,-2.0064,-2.0063,0,0,0,0,0,0,0,0,0,0,0,0,0,-2.0284,-2.0323,-2.0265,-2.0223,-2.0218,-2.0203,-2.0202,-2.02,-2.0134,-2.0133,-2.0131,-2.013,-2.0065,-2.0064,-2.0062,-2.0083,0,0,-2.0058,-2.0058,0,0,0,0,0,0,0,0,-2.0286,-2.0282,-2.023,-2.0226,-2.0221,-2.0174,-2.0198,-2.0161,-2.0135,-2.0166,-2.0131,-2.0129,-2.0102,-2.0098,-2.0089,-2.0079,-2.0077,-2.0058,-2.0057,-2.0057,-2.0057,0,0,0,0,0,0,0,-2.0289,-2.0284,-2.024,-2.0229,-2.0223,-2.0206,-2.0199,-2.0191,-2.0143,-2.0163,-2.0158,-2.0152,-2.0099,-2.009,-2.0087,-2.0076,-2.0058,-2.0057,-2.0056,-2.0056,-2.008,-2.0081,0,0,0,0,0,0,-2.0299,-2.0287,-2.0242,-2.0238,-2.0251,-2.0206,-2.0198,-2.0191,-2.0143,-2.0134,-2.0153,-2.0149,-2.0093,-2.0088,-2.0084,-2.0104,-2.0057,-2.0056,-2.0055,-2.0078,-2.008,-2.0081,0,0,0,0,0,0,-2.03,-2.0295,-2.0244,-2.0261,-2.0253,-2.0207,-2.0199,-2.019,-2.0181,-2.0135,-2.0126,-2.0153,-2.0092,-2.0086,-2.0084,-2.0101,-2.0055,-2.0054,-2.0076,-2.0079,-2.0081,-2.0145,0,0,0,0,0,0,-2.0302,-2.0296,-2.0304,-2.0262,-2.0253,-2.0246,-2.02,-2.019,-2.0179,-2.0173,-2.0132,-2.0124,-2.009,-2.0086,-2.0082,-2.0098,-2.0053,-2.0075,-2.0077,-2.008,-2.0141,-2.0149,-2.0156,0,0,0,0,0,-2.0305,-2.0324,-2.0305,-2.0299,-2.0261,-2.0247,-2.0242,-2.0203,-2.0181,-2.0188,-2.0158,-2.0126,-2.01,-2.0086,-2.0082,-2.0098,-2.0073,-2.0077,-2.008,-2.0138,-2.0148,-2.0156,0,0,0,0,0,0,-2.0368,-2.0318,-2.0296,-2.0302,-2.028,-2.0236,-2.0243,-2.0215,-2.0197,-2.0192,-2.0144,-2.0135,-2.0139,-2.0118,-2.0103,-2.0115,-2.0082,-2.0085,-2.0128,-2.0137,-2.0144,-2.0149,-2.0052,0,0,0,0,0,-2.0383,-2.0376,-2.0332,-2.0342,-2.0332,-2.029,-2.0282,-2.0255,-2.0229,-2.0219,-2.0189,-2.0164,-2.0151,-2.0143,-2.0128,-2.0138,-2.0128,-2.0147,-2.0155,-2.0161,-2.0163,-2.0167,-2.0175,-2.0092,-2.0092,-2.0092,0,0,-2.0414,-2.0385,-2.0384,-2.0354,-2.0333,-2.0327,-2.0282,-2.0277,-2.0271,-2.0217,-2.0213,-2.0191,-2.0161,-2.0165,-2.0165,-2.0148,-2.0184,-2.0165,-2.017,-2.0169,-2.0171,-2.0179,-2.0186,-2.0094,-2.0094,-2.0093,0,0,-2.0465,-2.0444,-2.045,-2.043,-2.04,-2.0371,-2.0373,-2.0334,-2.0317,-2.0313,-2.0272,-2.0265,-2.0242,-2.0222,-2.0209,-2.0255,-2.0224,-2.0251,-2.029,-2.0294,-2.0301,-2.0306,-2.0322,-2.0328,-2.0254,-2.0254,-2.0254,0,-2.0507,-2.0496,-2.0456,-2.0454,-2.0442,-2.0394,-2.0399,-2.0382,-2.0348,-2.034,-2.0322,-2.0293,-2.0269,-2.0268,-2.028,-2.0271,-2.027,-2.0255,-2.0303,-2.0308,-2.0313,-2.0327,-2.0334,-2.0258,-2.0257,-2.0257,-2.0257,0,-2.0548,-2.0541,-2.055,-2.0519,-2.0508,-2.051,-2.0469,-2.0463,-2.0437,-2.0411,-2.0407,-2.0377,-2.0355,-2.0353,-2.0327,-2.0348,-2.0338,-2.0312,-2.0278,-2.0325,-2.0338,-2.0343,-2.0263,-2.0262,-2.026,-2.026,0,0,-2.0637,-2.0585,-2.0589,-2.0575,-2.0538,-2.0531,-2.0531,-2.0511,-2.0506,-2.0484,-2.0482,-2.0465,-2.0441,-2.0426,-2.0397,-2.0402,-2.0439,-2.0375,-2.0373,-2.0387,-2.0461,-2.048,-2.0487,-2.0419,-2.042,-2.0421,-2.0463,0,-2.0682,-2.0679,-2.0643,-2.0649,-2.0642,-2.0597,-2.0597,-2.0574,-2.055,-2.054,-2.0513,-2.0501,-2.0471,-2.0461,-2.0464,-2.0434,-2.0453,-2.0431,-2.0416,-2.0416,-2.0424,-2.0494,-2.0514,-2.0556,-2.0468,-2.0469,-2.0469,0,-2.0734,-2.0716,-2.0723,-2.0686,-2.0682,-2.0682,-2.0661,-2.0652,-2.0625,-2.0607,-2.0592,-2.056,-2.0556,-2.0525,-2.0519,-2.0505,-2.0497,-2.0482,-2.0482,-2.0478,-2.0445,-2.0492,-2.0568,-2.0574,-2.0477,-2.0476,-2.0476,0,-2.0797,-2.0776,-2.0776,-2.0766,-2.0723,-2.0725,-2.0707,-2.0679,-2.0669,-2.065,-2.0643,-2.0624,-2.0614,-2.0599,-2.0563,-2.0544,-2.0561,-2.0527,-2.0545,-2.0546,-2.055,-2.055,-2.0625,-2.0546,-2.0546,-2.0546,-2.0546,0,-2.0851,-2.0856,-2.0804,-2.0805,-2.081,-2.0769,-2.0774,-2.0752,-2.0728,-2.0723,-2.0683,-2.0678,-2.0631,-2.0622,-2.0593,-2.0592,-2.0588,-2.0573,-2.0565,-2.0576,-2.0578,-2.0569,-2.0565,-2.0547,-2.0547,-2.0547,-2.0547,0,-2.0922,-2.0888,-2.0886,-2.0847,-2.0837,-2.0842,-2.0808,-2.0806,-2.078,-2.0775,-2.0771,-2.073,-2.0716,-2.0679,-2.0656,-2.0637,-2.0644,-2.063,-2.0653,-2.0648,-2.0668,-2.0667,-2.074,-2.0747,-2.0665,-2.0665,-2.0666,0,-2.0958,-2.0961,-2.0923,-2.0917,-2.0901,-2.0892,-2.0883,-2.0843,-2.0834,-2.0804,-2.0806,-2.079,-2.0775,-2.0756,-2.0723,-2.0706,-2.069,-2.0717,-2.0687,-2.0698,-2.069,-2.069,-2.069,-2.0724,-2.0725,-2.0726,-2.0726,0,-2.1025,-2.1008,-2.0996,-2.0978,-2.0968,-2.0951,-2.0933,-2.093,-2.0885,-2.0877,-2.0864,-2.0853,-2.083,-2.0814,-2.0791,-2.0772,-2.0742,-2.0736,-2.0739,-2.075,-2.0763,-2.0756,-2.067,-2.0734,-2.0734,-2.0733,-2.0733,-2.0732,-2.1079,-2.108,-2.1053,-2.1041,-2.1023,-2.1007,-2.1004,-2.0978,-2.0966,-2.0945,-2.0922,-2.0911,-2.0885,-2.0851,-2.0835,-2.0825,-2.0809,-2.0814,-2.0815,-2.0816,-2.0821,-2.0766,-2.0821,-2.0821,-2.082,-2.082,-2.082,0,-2.1144,-2.1125,-2.1114,-2.109,-2.108,-2.1054,-2.1032,-2.1025,-2.1016,-2.0995,-2.0981,-2.0966,-2.0951,-2.0918,-2.0899,-2.0898,-2.0884,-2.0895,-2.0894,-2.089,-2.0837,-2.0836,-2.0907,-2.0907,-2.0907,-2.0907,-2.0907,-2.0907,-2.1176,-2.1176,-2.1156,-2.1147,-2.1127,-2.1117,-2.1107,-2.1092,-2.1074,-2.1059,-2.1047,-2.1026,-2.0999,-2.0979,-2.0964,-2.0955,-2.0949,-2.0965,-2.0951,-2.0902,-2.0893,-2.0886,-2.0884,-2.0964,-2.0964,-2.1004,-2.1005,-2.1005]},{"header":{"parameterUnit":"m.s-1","parameterCategory":1,"la1":30.2991,"la2":30.254,"lo1":-89.0895,"lo2":-89.0444,"dy":0.0017,"dx":0.0017,"nx":28,"ny":28,"refTime":"2023-09-13T21:00:00:Z","depth":0,"parameterNumber":3,"parameterNumberName":"V-component_of_WINDS"},"data":[0,0,0,0,0,0,0,0,0,0,0,0,0,0,0,0,0,0,0,0,0,0,0,0,0,0,0,0,0,0,0,0,0,0,0,0,0,0,0,0,0,0,0,0,0,0,0,0,0,0,0,0,0,0,0,0,0,0,0.91,0.9099,0,0.8963,0.8961,0.8959,0.8862,0.8862,0.8861,0.886,0.8715,0.8712,0.8709,0,0,0,0,0,0,0,0,0,0,0,0,0,0.9278,0.9275,0.91,0.9099,0.9097,0.8963,0.8961,0.8959,0.8862,0.8862,0.8861,0.886,0.8716,0.8712,0.8708,0,0,0,0,0,0,0,0,0,0,0,0,0,0.9177,0.9274,0.9101,0.9033,0.9025,0.8963,0.8961,0.8958,0.8863,0.8862,0.886,0.8859,0.8717,0.8712,0.8708,0.8701,0,0,0.8693,0.8691,0,0,0,0,0,0,0,0,0.9182,0.917,0.9044,0.9037,0.9029,0.8929,0.897,0.8872,0.8863,0.8924,0.886,0.8859,0.8787,0.8776,0.8752,0.8694,0.8688,0.8693,0.869,0.8688,0.8687,0,0,0,0,0,0,0,0.919,0.9175,0.9046,0.9043,0.9033,0.9008,0.8993,0.8951,0.8863,0.8919,0.8911,0.8897,0.8782,0.8757,0.8748,0.8686,0.8693,0.8689,0.8686,0.8684,0.8616,0.8617,0,0,0,0,0,0,0.9208,0.9182,0.905,0.9042,0.9105,0.9006,0.8989,0.8962,0.8863,0.8847,0.8898,0.8893,0.8766,0.8754,0.8743,0.8728,0.8688,0.8683,0.8681,0.8615,0.8616,0.8617,0,0,0,0,0,0,0.9212,0.9197,0.9056,0.911,0.909,0.9004,0.8975,0.896,0.8935,0.8848,0.8831,0.8889,0.8765,0.875,0.8713,0.8722,0.8681,0.8677,0.8614,0.8615,0.8617,0.8699,0,0,0,0,0,0,0.9217,0.9199,0.9196,0.911,0.9087,0.9028,0.8976,0.8958,0.8927,0.8919,0.8835,0.882,0.8763,0.872,0.8708,0.8714,0.8673,0.8612,0.8614,0.8616,0.8695,0.8703,0.871,0,0,0,0,0,0.9224,0.9223,0.9196,0.9181,0.9082,0.9029,0.9016,0.8951,0.8929,0.8924,0.8869,0.8822,0.8724,0.8717,0.8702,0.8708,0.8611,0.8614,0.8616,0.8692,0.8702,0.871,0,0,0,0,0,0,0.9309,0.9211,0.9179,0.9151,0.91,0.9013,0.9005,0.8964,0.8916,0.891,0.8832,0.8813,0.8785,0.8743,0.8737,0.8697,0.8662,0.8661,0.8725,0.8733,0.8741,0.875,0.8669,0,0,0,0,0,0.9325,0.9292,0.9207,0.919,0.9166,0.9091,0.9065,0.9021,0.8963,0.8941,0.8882,0.8827,0.8784,0.8757,0.8712,0.869,0.867,0.8687,0.8694,0.8701,0.8701,0.8686,0.8692,0.8625,0.8625,0.8625,0,0,0.9357,0.9299,0.9282,0.9206,0.9161,0.9127,0.9073,0.9039,0.9013,0.8935,0.8896,0.8853,0.8786,0.8757,0.8741,0.8721,0.8716,0.8704,0.871,0.8706,0.8689,0.8696,0.8702,0.8627,0.8626,0.8626,0,0,0.9397,0.935,0.9331,0.9288,0.9221,0.9172,0.9168,0.9088,0.9056,0.9017,0.8958,0.8926,0.8853,0.8808,0.8776,0.8804,0.8759,0.8792,0.883,0.8817,0.8822,0.8827,0.8836,0.884,0.8792,0.8793,0.8793,0,0.9443,0.9391,0.9326,0.9297,0.9265,0.9196,0.9176,0.9137,0.9058,0.9038,0.9018,0.8926,0.8876,0.8836,0.8843,0.882,0.8812,0.8799,0.8827,0.8831,0.8834,0.8841,0.8845,0.8797,0.8796,0.8796,0.8795,0,0.9452,0.9417,0.941,0.9338,0.9306,0.9282,0.9213,0.9188,0.9148,0.91,0.9062,0.9001,0.8943,0.8931,0.889,0.8885,0.8875,0.8843,0.8805,0.8846,0.8851,0.8854,0.8803,0.8801,0.88,0.8799,0,0,0.9537,0.9433,0.9431,0.9399,0.9322,0.9293,0.9266,0.9212,0.9192,0.9141,0.9116,0.9058,0.9028,0.8992,0.8946,0.8935,0.896,0.8903,0.89,0.8915,0.8951,0.8974,0.8979,0.8932,0.8932,0.8932,0.8956,0,0.9564,0.9513,0.9455,0.9423,0.939,0.9326,0.9303,0.9253,0.9209,0.9174,0.9125,0.9085,0.9049,0.9027,0.9014,0.896,0.8966,0.8958,0.8906,0.8905,0.8922,0.8982,0.9006,0.9031,0.8958,0.8958,0.8958,0,0.9587,0.9542,0.9508,0.9436,0.9419,0.94,0.9346,0.9314,0.9257,0.9226,0.9188,0.9139,0.9108,0.9078,0.9032,0.9028,0.9004,0.8975,0.8975,0.8965,0.8932,0.8972,0.9037,0.904,0.8961,0.8961,0.8961,0,0.9651,0.9582,0.9553,0.9527,0.9442,0.943,0.9394,0.9336,0.9308,0.9261,0.9242,0.9192,0.9164,0.9126,0.9066,0.905,0.9027,0.8992,0.8999,0.9001,0.8994,0.8995,0.9055,0.8983,0.8983,0.8983,0.8983,0,0.9685,0.9666,0.9581,0.9562,0.954,0.9475,0.9454,0.9412,0.9362,0.9334,0.9276,0.9251,0.9174,0.914,0.9093,0.9063,0.9051,0.9024,0.9011,0.9028,0.9031,0.9008,0.9004,0.8984,0.8984,0.8984,0.8984,0,0.9751,0.9693,0.9657,0.9582,0.9563,0.9549,0.9484,0.9464,0.9419,0.9384,0.9372,0.9301,0.9258,0.9195,0.9133,0.9101,0.9078,0.9058,0.9097,0.9089,0.91,0.9099,0.9145,0.9147,0.9077,0.9078,0.9079,0,0.9775,0.976,0.9684,0.9662,0.9629,0.9594,0.9566,0.9502,0.9475,0.9411,0.9398,0.9352,0.9311,0.9245,0.9187,0.9139,0.9117,0.9137,0.9109,0.9127,0.9116,0.9117,0.9114,0.9142,0.9143,0.9144,0.9145,0,0.9824,0.9798,0.9759,0.9712,0.9681,0.964,0.9596,0.9582,0.9509,0.9481,0.9438,0.9407,0.9345,0.9299,0.9244,0.9206,0.9163,0.9155,0.9154,0.9169,0.9192,0.9179,0.9113,0.9153,0.9152,0.9152,0.9151,0.9151,0.9869,0.9852,0.9797,0.9757,0.9719,0.968,0.9658,0.9612,0.9575,0.952,0.9486,0.9444,0.9389,0.9312,0.9277,0.9243,0.9225,0.9223,0.9223,0.9223,0.9228,0.92,0.9233,0.9233,0.9232,0.9232,0.9232,0,0.9913,0.9876,0.984,0.9782,0.9752,0.9718,0.9668,0.9644,0.9609,0.9562,0.9524,0.9476,0.9432,0.9372,0.9324,0.9308,0.9288,0.9298,0.9297,0.9289,0.9248,0.9253,0.9315,0.9315,0.9315,0.9315,0.9315,0.9315,0.9933,0.9903,0.9871,0.9822,0.9784,0.9744,0.9719,0.9684,0.9646,0.9595,0.9559,0.9521,0.9469,0.9418,0.9376,0.9359,0.9344,0.936,0.9337,0.9299,0.9291,0.9284,0.9288,0.9357,0.9357,0.938,0.938,0.9381]}]]